Tracking 18844 objects as of 21-Nov-2017
HD Live streaming from Space Station
objects crossing your sky now

FENGYUN 1C DEB

Track FENGYUN 1C DEB now!
10-day predictions


NORAD ID: 32113
Int'l Code: 1999-025CRF
Perigee: 756.7 km
Apogee: 1,124.3 km
Inclination: 99.3 °
Period: 103.7 minutes
Semi major axis: 7311 km
RCS: 0.0112 m2 (small)
Launch date: May 10, 1999
Source: People's Republic of China (PRC)
Launch site: Taiyaun Space Center, China (TSC)

Note: This is SATELLITE DEBRIS
aabbcc
Your satellite tracking list
Your tracking list is empty




NASA's NSSDC Master Catalog

Two Line Element Set (TLE):
1 32113U 99025CRF 17322.88075388 +.00000250 +00000-0 +19192-3 0  9999
2 32113 099.3336 349.7473 0251400 280.2357 077.0541 13.88645025219515
Source of the keplerian elements: AFSPC